User: anonymous   Login
Location: Young's Pond
(41.2695°N, 72.7766°W)
Time: 15:10:37
(UTC-04:00)
Language:

Spot 4 - Orbit

View from above orbital plane
View from above orbital plane
View from above satellite
View from above satellite

Ground track
Ground track

The orbit data is extracted from the following two-line orbital elements,

1 25260U 98017A   15214.88933551  .00000031  00000-0  18679-4 0  9994
2 25260 098.4142 286.3467 0012561 209.7072 150.3411 14.53297235902459
Epoch (UTC): 02 August 2015 21:20:38
Eccentricity: 0.0012561
inclination: 98.4142°
perigee height: 706 km
apogee height: 724 km
right ascension of ascending node: 286.3467°
argument of perigee: 209.7072°
revolutions per day: 14.53297235
mean anomaly at epoch: 150.3411°
orbit number at epoch: 90245

The dashed part of the orbit path shows where the satellite is in the earth's shadow,  

DLR